Time,TemperatureF,DewpointF,PressureIn,WindDirection,WindDirectionDegrees,WindSpeedMPH,WindSpeedGustMPH,Humidity,HourlyPrecipIn,Conditions,Clouds,dailyrainin,SoftwareType,DateUTC
2013-07-17 00:01:00,73.0,70.0,30.22,East,81,0.0,0.0,90,0.00,,,0.00,,2013-07-17 04:01:00,
2013-07-17 00:22:00,73.0,70.0,30.22,East,81,0.0,0.0,90,0.00,,,0.00,,2013-07-17 04:22:00,
2013-07-17 00:32:00,73.0,70.0,30.21,East,81,0.0,0.0,91,0.00,,,0.00,,2013-07-17 04:32:00,
2013-07-17 01:02:00,73.0,71.0,30.21,East,81,0.0,0.0,92,0.00,,,0.00,,2013-07-17 05:02:00,
2013-07-17 01:11:00,73.0,71.0,30.21,East,81,0.0,0.0,92,0.00,,,0.00,,2013-07-17 05:11:00,
2013-07-17 01:22:00,72.0,70.0,30.21,East,81,0.0,0.0,93,0.00,,,0.00,,2013-07-17 05:22:00,
2013-07-17 01:32:00,72.0,70.0,30.21,East,81,0.0,0.0,93,0.00,,,0.00,,2013-07-17 05:32:00,
2013-07-17 01:43:00,72.0,70.0,30.21,East,81,0.0,0.0,93,0.00,,,0.00,,2013-07-17 05:43:00,
2013-07-17 01:52:00,72.0,70.0,30.21,East,81,0.0,0.0,93,0.00,,,0.00,,2013-07-17 05:52:00,
2013-07-17 02:01:00,72.0,70.0,30.21,East,81,0.0,0.0,94,0.00,,,0.00,,2013-07-17 06:01:00,
2013-07-17 02:33:00,72.0,70.0,30.21,East,81,0.0,0.0,95,0.00,,,0.00,,2013-07-17 06:33:00,
2013-07-17 02:43:00,71.0,69.0,30.21,East,81,0.0,0.0,95,0.00,,,0.00,,2013-07-17 06:43:00,
2013-07-17 02:52:00,71.0,69.0,30.20,East,81,0.0,0.0,95,0.00,,,0.00,,2013-07-17 06:52:00,
2013-07-17 03:01:00,71.0,69.0,30.20,East,81,0.0,0.0,95,0.00,,,0.00,,2013-07-17 07:01:00,
2013-07-17 03:11:00,71.0,69.0,30.20,East,81,0.0,0.0,95,0.00,,,0.00,,2013-07-17 07:11:00,
2013-07-17 03:42:00,71.0,70.0,30.20,East,81,0.0,0.0,96,0.00,,,0.00,,2013-07-17 07:42:00,
2013-07-17 03:52:00,71.0,70.0,30.20,East,81,0.0,0.0,96,0.00,,,0.00,,2013-07-17 07:52:00,
2013-07-17 03:53:00,71.0,70.0,30.21,East,81,0.0,0.0,96,0.00,,,0.00,,2013-07-17 07:53:00,
2013-07-17 04:01:00,71.0,70.0,30.20,East,81,0.0,0.0,96,0.00,,,0.00,,2013-07-17 08:01:00,
2013-07-17 04:11:00,71.0,70.0,30.21,East,81,0.0,0.0,96,0.00,,,0.00,,2013-07-17 08:11:00,
2013-07-17 04:22:00,71.0,70.0,30.21,East,81,0.0,0.0,96,0.00,,,0.00,,2013-07-17 08:22:00,
2013-07-17 04:32:00,71.0,70.0,30.21,East,81,0.0,0.0,96,0.00,,,0.00,,2013-07-17 08:32:00,
2013-07-17 04:43:00,71.0,70.0,30.21,East,81,0.0,0.0,96,0.00,,,0.00,,2013-07-17 08:43:00,
2013-07-17 05:02:00,70.0,69.0,30.21,East,81,0.0,0.0,96,0.00,,,0.00,,2013-07-17 09:02:00,
2013-07-17 05:12:00,70.0,69.0,30.21,East,81,0.0,0.0,96,0.00,,,0.00,,2013-07-17 09:12:00,
2013-07-17 05:22:00,70.0,69.0,30.21,East,81,0.0,0.0,96,0.00,,,0.00,,2013-07-17 09:22:00,
2013-07-17 05:32:00,70.0,69.0,30.21,East,81,0.0,0.0,96,0.00,,,0.00,,2013-07-17 09:32:00,
2013-07-17 05:43:00,70.0,69.0,30.22,East,81,0.0,0.0,96,0.00,,,0.00,,2013-07-17 09:43:00,
2013-07-17 05:52:00,70.0,69.0,30.22,East,81,0.0,0.0,96,0.00,,,0.00,,2013-07-17 09:52:00,
2013-07-17 06:01:00,70.0,69.0,30.22,East,81,0.0,0.0,96,0.00,,,0.00,,2013-07-17 10:01:00,
2013-07-17 06:11:00,70.0,69.0,30.22,East,81,0.0,0.0,96,0.00,,,0.00,,2013-07-17 10:11:00,
2013-07-17 06:22:00,70.0,69.0,30.22,East,81,0.0,0.0,96,0.00,,,0.00,,2013-07-17 10:22:00,
2013-07-17 06:43:00,71.0,70.0,30.23,East,81,0.0,0.0,97,0.00,,,0.00,,2013-07-17 10:43:00,
2013-07-17 06:52:00,71.0,70.0,30.23,East,81,0.0,0.0,97,0.00,,,0.00,,2013-07-17 10:52:00,
2013-07-17 07:02:00,71.0,70.0,30.23,East,81,0.0,0.0,97,0.00,,,0.00,,2013-07-17 11:02:00,
2013-07-17 07:11:00,71.0,70.0,30.23,East,81,0.0,0.0,97,0.00,,,0.00,,2013-07-17 11:11:00,
2013-07-17 07:22:00,72.0,70.0,30.23,East,81,0.0,0.0,95,0.00,,,0.00,,2013-07-17 11:22:00,
2013-07-17 07:32:00,73.0,71.0,30.23,East,81,0.0,0.0,95,0.00,,,0.00,,2013-07-17 11:32:00,
2013-07-17 07:42:00,74.0,72.0,30.24,East,81,0.0,0.0,92,0.00,,,0.00,,2013-07-17 11:42:00,
2013-07-17 07:52:00,75.0,72.0,30.24,East,81,0.0,0.0,90,0.00,,,0.00,,2013-07-17 11:52:00,
2013-07-17 08:01:00,75.0,72.0,30.24,East,81,0.0,0.0,90,0.00,,,0.00,,2013-07-17 12:01:00,
2013-07-17 08:12:00,76.0,72.0,30.24,East,81,3.0,0.0,88,0.00,,,0.00,,2013-07-17 12:12:00,
2013-07-17 08:22:00,77.0,72.0,30.24,East,81,3.0,0.0,84,0.00,,,0.00,,2013-07-17 12:22:00,
2013-07-17 08:32:00,77.0,72.0,30.24,East,81,3.0,0.0,84,0.00,,,0.00,,2013-07-17 12:32:00,
2013-07-17 08:42:00,77.0,72.0,30.24,East,81,3.0,0.0,84,0.00,,,0.00,,2013-07-17 12:42:00,
2013-07-17 08:53:00,77.0,72.0,30.24,East,81,3.0,0.0,84,0.00,,,0.00,,2013-07-17 12:53:00,
2013-07-17 09:01:00,81.0,73.0,30.24,East,81,0.0,2.0,77,0.00,,,0.00,,2013-07-17 13:01:00,
2013-07-17 09:22:00,82.0,73.0,30.24,East,81,1.0,2.0,74,0.00,,,0.00,,2013-07-17 13:22:00,
2013-07-17 09:32:00,83.0,73.0,30.25,East,81,0.0,2.0,71,0.00,,,0.00,,2013-07-17 13:32:00,
2013-07-17 09:43:00,84.0,73.0,30.25,East,81,2.0,3.0,70,0.00,,,0.00,,2013-07-17 13:43:00,
2013-07-17 09:52:00,84.0,72.0,30.25,East,81,0.0,3.0,68,0.00,,,0.00,,2013-07-17 13:52:00,
2013-07-17 10:22:00,84.0,71.0,30.24,SSE,160,7.0,7.0,65,0.00,,,0.00,,2013-07-17 14:22:00,
2013-07-17 10:32:00,84.0,71.0,30.24,SE,141,0.0,3.0,65,0.00,,,0.00,,2013-07-17 14:32:00,
2013-07-17 10:43:00,83.0,71.0,30.24,South,169,0.0,3.0,67,0.00,,,0.00,,2013-07-17 14:43:00,
2013-07-17 10:52:00,83.0,71.0,30.24,South,169,0.0,3.0,67,0.00,,,0.00,,2013-07-17 14:52:00,
2013-07-17 11:02:00,83.0,71.0,30.24,SSE,164,3.0,3.0,67,0.00,,,0.00,,2013-07-17 15:02:00,
2013-07-17 11:12:00,83.0,71.0,30.24,SSE,154,3.0,3.0,68,0.00,,,0.00,,2013-07-17 15:12:00,
2013-07-17 11:22:00,83.0,71.0,30.24,SSE,160,6.0,6.0,67,0.00,,,0.00,,2013-07-17 15:22:00,
2013-07-17 11:32:00,84.0,72.0,30.24,ESE,122,3.0,3.0,68,0.00,,,0.00,,2013-07-17 15:32:00,
2013-07-17 11:42:00,84.0,72.0,30.24,ESE,122,3.0,3.0,68,0.00,,,0.00,,2013-07-17 15:42:00,
2013-07-17 11:52:00,84.0,72.0,30.24,ESE,122,3.0,3.0,68,0.00,,,0.00,,2013-07-17 15:52:00,
2013-07-17 12:02:00,83.0,72.0,30.24,South,169,5.0,5.0,69,0.00,,,0.00,,2013-07-17 16:02:00,
2013-07-17 12:11:00,82.0,70.0,30.24,SSW,200,0.0,3.0,68,0.00,,,0.00,,2013-07-17 16:11:00,
2013-07-17 12:33:00,82.0,71.0,30.23,SE,141,5.0,6.0,69,0.00,,,0.00,,2013-07-17 16:33:00,
2013-07-17 12:52:00,82.0,68.0,30.23,SSW,194,2.0,6.0,62,0.00,,,0.00,,2013-07-17 16:52:00,
2013-07-17 13:02:00,82.0,68.0,30.23,SSW,194,2.0,6.0,62,0.00,,,0.00,,2013-07-17 17:02:00,
2013-07-17 13:22:00,82.0,67.0,30.22,South,170,1.0,6.0,61,0.00,,,0.00,,2013-07-17 17:22:00,
2013-07-17 13:32:00,82.0,67.0,30.22,SSW,193,7.0,7.0,60,0.00,,,0.00,,2013-07-17 17:32:00,
2013-07-17 13:52:00,82.0,68.0,30.22,SSW,208,3.0,7.0,63,0.00,,,0.00,,2013-07-17 17:52:00,
2013-07-17 14:01:00,83.0,69.0,30.21,WSW,241,3.0,7.0,63,0.00,,,0.00,,2013-07-17 18:01:00,
2013-07-17 14:11:00,82.0,68.0,30.21,SSW,196,7.0,7.0,62,0.00,,,0.00,,2013-07-17 18:11:00,
2013-07-17 14:32:00,82.0,68.0,30.21,WSW,239,0.0,7.0,62,0.00,,,0.00,,2013-07-17 18:32:00,
2013-07-17 14:43:00,82.0,68.0,30.21,WSW,239,0.0,7.0,62,0.00,,,0.00,,2013-07-17 18:43:00,
2013-07-17 14:52:00,82.0,69.0,30.20,South,176,0.0,10.0,65,0.00,,,0.00,,2013-07-17 18:52:00,
2013-07-17 15:02:00,82.0,69.0,30.20,South,176,0.0,10.0,65,0.00,,,0.00,,2013-07-17 19:02:00,
2013-07-17 15:22:00,81.0,70.0,30.20,WSW,239,7.0,10.0,70,0.00,,,0.00,,2013-07-17 19:22:00,
2013-07-17 15:32:00,81.0,70.0,30.20,WSW,239,7.0,10.0,70,0.00,,,0.00,,2013-07-17 19:32:00,
2013-07-17 16:02:00,82.0,72.0,30.19,SE,141,6.0,7.0,72,0.00,,,0.00,,2013-07-17 20:02:00,
2013-07-17 16:22:00,82.0,72.0,30.17,SW,217,0.0,7.0,72,0.00,,,0.00,,2013-07-17 20:22:00,
2013-07-17 16:43:00,81.0,70.0,30.17,SW,214,6.0,6.0,70,0.00,,,0.00,,2013-07-17 20:43:00,
2013-07-17 16:52:00,81.0,70.0,30.16,SSW,194,3.0,4.0,70,0.00,,,0.00,,2013-07-17 20:52:00,
2013-07-17 17:02:00,82.0,70.0,30.16,SW,222,0.0,4.0,68,0.00,,,0.00,,2013-07-17 21:02:00,
2013-07-17 17:32:00,82.0,70.0,30.16,South,187,6.0,6.0,67,0.00,,,0.00,,2013-07-17 21:32:00,
2013-07-17 17:42:00,81.0,69.0,30.15,SW,216,4.0,6.0,68,0.00,,,0.00,,2013-07-17 21:42:00,
2013-07-17 17:52:00,81.0,70.0,30.15,WSW,248,7.0,7.0,69,0.00,,,0.00,,2013-07-17 21:52:00,
2013-07-17 18:11:00,80.0,69.0,30.15,SW,216,9.0,9.0,69,0.00,,,0.00,,2013-07-17 22:11:00,
2013-07-17 18:22:00,81.0,70.0,30.14,SW,230,0.0,6.0,70,0.00,,,0.00,,2013-07-17 22:22:00,
2013-07-17 18:32:00,81.0,70.0,30.14,SSW,204,6.0,0.0,69,0.00,,,0.00,,2013-07-17 22:32:00,
2013-07-17 18:53:00,80.0,70.0,30.15,WSW,244,5.0,0.0,72,0.00,,,0.00,,2013-07-17 22:53:00,
2013-07-17 19:02:00,79.0,70.0,30.14,SW,230,0.0,0.0,74,0.00,,,0.00,,2013-07-17 23:02:00,
2013-07-17 19:22:00,79.0,70.0,30.14,SW,231,1.0,0.0,75,0.00,,,0.00,,2013-07-17 23:22:00,
2013-07-17 19:32:00,78.0,70.0,30.14,SSW,204,5.0,0.0,76,0.00,,,0.00,,2013-07-17 23:32:00,
2013-07-17 19:43:00,78.0,70.0,30.14,SSW,204,5.0,0.0,76,0.00,,,0.00,,2013-07-17 23:43:00,
2013-07-17 19:52:00,77.0,71.0,30.13,WSW,251,4.0,10.0,81,0.00,,,0.00,,2013-07-17 23:52:00,
2013-07-17 20:01:00,77.0,71.0,30.12,SSW,202,6.0,10.0,83,0.00,,,0.00,,2013-07-18 00:01:00,
2013-07-17 20:11:00,77.0,71.0,30.12,SSW,202,6.0,10.0,83,0.00,,,0.00,,2013-07-18 00:11:00,
2013-07-17 20:22:00,77.0,71.0,30.12,SSW,202,6.0,10.0,83,0.00,,,0.00,,2013-07-18 00:22:00,
2013-07-17 20:43:00,76.0,72.0,30.14,WSW,241,6.0,6.0,86,0.00,,,0.00,,2013-07-18 00:43:00,
2013-07-17 20:52:00,75.0,71.0,30.14,SW,229,0.0,6.0,86,0.00,,,0.00,,2013-07-18 00:52:00,
2013-07-17 21:01:00,75.0,71.0,30.14,SW,229,0.0,6.0,87,0.00,,,0.00,,2013-07-18 01:01:00,
2013-07-17 21:11:00,75.0,71.0,30.14,SW,229,0.0,6.0,87,0.00,,,0.00,,2013-07-18 01:11:00,
2013-07-17 21:22:00,75.0,71.0,30.14,SW,229,0.0,6.0,87,0.00,,,0.00,,2013-07-18 01:22:00,
2013-07-17 21:43:00,74.0,70.0,30.14,SW,229,0.0,0.0,87,0.00,,,0.00,,2013-07-18 01:43:00,
2013-07-17 21:53:00,74.0,70.0,30.14,SW,229,0.0,0.0,87,0.00,,,0.00,,2013-07-18 01:53:00,
2013-07-17 22:32:00,74.0,71.0,30.14,SW,229,3.0,0.0,89,0.00,,,0.00,,2013-07-18 02:32:00,
2013-07-17 22:43:00,74.0,71.0,30.14,SW,229,0.0,0.0,89,0.00,,,0.00,,2013-07-18 02:43:00,
2013-07-17 22:52:00,74.0,71.0,30.14,SW,229,0.0,0.0,89,0.00,,,0.00,,2013-07-18 02:52:00,
2013-07-17 23:01:00,74.0,71.0,30.14,SW,229,0.0,0.0,89,0.00,,,0.00,,2013-07-18 03:01:00,
2013-07-17 23:11:00,74.0,71.0,30.14,SW,229,0.0,0.0,89,0.00,,,0.00,,2013-07-18 03:11:00,
2013-07-17 23:22:00,74.0,71.0,30.14,SW,229,0.0,0.0,89,0.00,,,0.00,,2013-07-18 03:22:00,
2013-07-17 23:32:00,74.0,71.0,30.14,SW,229,0.0,0.0,89,0.00,,,0.00,,2013-07-18 03:32:00,